ブランパン彗星

289P/Blanpain (2019)

English version
Home page
Updated on April 4, 2021

---------------------------------------------------------------------

・ プロフィール

・ 写真集

・ 軌道要素

Epoch 2019 Dec. 23.0 TT = JDT 2458840.5                                         
T 2019 Dec. 20.98616 TT                                 Rudenko                 
q   0.9588886            (2000.0)            P               Q                  
n   0.18531612     Peri.    9.84457     +0.19561616     -0.97598256             
a   3.0469167      Node    68.92404     +0.89262433     +0.13670912             
e   0.6852921      Incl.    5.89757     +0.40614790     +0.16961327             
P   5.32                                                                        
From 505 observations 2003 Oct. 25-2020 Mar. 15, mean residual 1".8.            
     Nongravitational parameters A1 = -0.10, A2 = -0.0082.                      

・ 星図

・ 光度変化

        m1 = 21.0 + 5 logΔ + 2.0 log r(t + 100)

        ※ 緑色の曲線は、H = 19.5  G = 0.15 の光度曲線です。

---------------------------------------------------------------------

軌道要素はM.P.E.C. 2021-F20に掲載されたものです。
星図はステラナビゲータ Ver.10 (アストロアーツ) で作成したものです。
光度グラフはComet for Windowsで作成したものです。

---------------------------------------------------------------------

Copyright(C) Seiichi Yoshida (comet@aerith.net). All rights reserved.